{"data":{"norad_id":65369,"epoch":"2026-05-24T18:36:33.956064Z","epoch_age_seconds":91487,"freshness":"FRESH","line1":"1 65369U 25190U   26144.77539301  .00015365  00000+0  52978-3 0  9991","line2":"2 65369  53.1580 174.8112 0001107  80.7559 279.3567 15.30203472 41405","mean_motion":15.30203472,"eccentricity":0.0001107,"inclination_deg":53.158,"raan_deg":174.8112,"arg_perigee_deg":80.7559,"mean_anomaly_deg":279.3567,"bstar":0.00052978,"rev_number":4140,"period_min":94.105132183362,"perigee_km":474.44603774627,"apogee_km":475.96336759924,"semimajor_km":6853.3417026728,"source":"CELESTRAK","updated_at":"2026-05-25T13:38:20.768958Z"}}